Location: G�ppingen
(48.7000°N, 9.6670°E)
Time: 12:01:45
(UTC+01:00)

N. Korean satellite - Visible Passes

Search period start: 18 December 2017 00:00
Search period end: 28 December 2017 00:00
Orbit: 461 x 513 km, 97.2° (Epoch: 17 December)

Date Brightness Start Highest point End Pass type
(mag) Time Alt. Az. Time Alt. Az. Time Alt. Az.
18 Dec 7.4 07:01:06 10° NNE 07:04:45 57° E 07:08:20 10° S visible
18 Dec 7.1 17:40:48 10° SE 17:44:19 40° ENE 17:47:52 10° N visible
18 Dec 9.5 19:15:20 10° SW 19:18:00 18° W 19:20:41 10° NW visible
19 Dec 8.7 06:37:47 10° NNE 06:41:05 30° E 06:44:20 10° SSE visible
19 Dec 7.8 17:17:53 10° ESE 17:20:53 23° ENE 17:23:55 10° NNE visible
19 Dec 8.5 18:50:52 10° SSW 18:54:15 32° W 18:57:40 10° NNW visible
20 Dec 9.7 06:14:50 10° NE 06:17:20 17° E 06:19:47 10° SE visible
20 Dec 7.2 18:26:54 10° S 18:30:35 59° W 18:34:20 10° NNW visible
21 Dec 6.5 07:23:50 10° N 07:27:31 76° WNW 07:31:07 10° SSW visible
21 Dec 6.5 18:03:16 10° SSE 18:07:00 73° ENE 18:10:47 10° N visible
21 Dec 10.2 19:40:14 10° W 19:41:00 10° W 19:41:45 10° WNW visible
22 Dec 7.4 07:00:18 10° NNE 07:03:56 56° E 07:07:27 10° S visible
22 Dec 7.1 17:39:58 10° SE 17:43:30 39° ENE 17:47:02 10° N visible
22 Dec 9.5 19:14:28 10° SW 19:17:10 19° W 19:19:52 10° NW visible
23 Dec 8.7 06:36:59 10° NNE 06:40:14 29° E 06:43:25 10° SSE visible
23 Dec 7.8 17:17:03 10° ESE 17:20:03 23° ENE 17:23:03 10° NNE visible
23 Dec 8.5 18:50:01 10° SSW 18:53:25 32° W 18:56:50 10° NNW visible
24 Dec 9.7 06:14:03 10° NE 06:16:27 17° E 06:18:50 10° SE visible
24 Dec 7.2 18:26:02 10° S 18:29:44 60° W 18:33:29 10° NNW visible
25 Dec 6.5 07:22:59 10° N 07:26:39 77° WNW 07:30:12 10° SSW visible
25 Dec 6.5 18:02:24 10° SSE 18:06:09 72° ENE 18:09:55 10° N visible
25 Dec 10.2 19:39:16 10° W 19:40:07 11° W 19:40:59 10° WNW visible
26 Dec 7.4 06:59:27 10° NNE 07:03:02 54° E 07:06:31 10° S visible
26 Dec 7.1 17:39:07 10° SE 17:42:37 38° ENE 17:46:08 10° N visible
26 Dec 9.5 19:13:34 10° SW 19:16:17 19° W 19:19:00 10° NW visible
27 Dec 8.8 06:36:07 10° NNE 06:39:20 29° E 06:42:26 10° SSE visible
27 Dec 7.8 17:16:12 10° ESE 17:19:10 23° ENE 17:22:08 10° NNE visible
27 Dec 8.5 18:49:06 10° SSW 18:52:31 33° W 18:55:57 10° NNW visible
